QPF
0.01 0.01 0.01 0.01 0.01 0.00 0.00 0.00 0.00 0.00 0.00 0.00 0.00 0.00 0.00 0.00 0.01 0.01 0.01 0.01 0.01 0.01 0.00 0.00 0.00 0.01 0.00 0.00 0.00 0.00 0.00 0.00 0.00 0.00 0.00 0.00 0.00 0.00 0.00 0.00 0.00 0.00 0.01 0.01
0.00 0.00 0.00 0.00 0.01 0.00 0.00 0.00 0.00 0.00 0.00 0.00 0.00 0.01 0.01 0.01 0.00 0.01 0.01 0.01 0.01 0.02 0.01 0.01 0.01 0.01 0.00 0.00 0.00 0.00 0.00 0.00 0.00 0.00 0.00 0.00 0.00 0.00 0.00 0.00 0.00 0.00 0.00 0.00
0.00 0.00 0.00 0.00 0.01 0.00 0.00 0.00 0.00 0.00 0.00 0.01 0.01 0.01 0.01 0.01 0.00 0.00 0.01 0.01 0.01 0.01 0.01 0.00 0.01 0.01 0.00 0.00 0.00 0.00 0.00 0.00 0.00 0.00 0.00 0.00 0.00 0.00 0.00 0.00 0.00 0.00 0.00 0.01
0.00 0.00 0.00 0.00 0.00 0.00 0.00 0.00 0.00 0.00 0.01 0.01 0.01 0.01 0.01 0.01 0.01 0.01 0.00 0.01 0.01 0.01 0.00 0.00 0.01 0.01 0.00 0.00 0.00 0.00 0.00 0.00 0.01 0.01 0.01 0.00 0.00 0.00 0.00 0.00 0.00 0.00 0.00 0.01
0.00 0.00 0.00 0.00 0.00 0.00 0.00 0.00 0.00 0.00 0.01 0.01 0.01 0.02 0.02 0.01 0.01 0.01 0.01 0.00 0.01 0.01 0.01 0.00 0.01 0.01 0.00 0.00 0.00 0.00 0.00 0.01 0.01 0.02 0.01 0.01 0.01 0.00 0.00 0.00 0.00 0.00 0.00 0.01
0.00 0.00 0.00 0.00 0.00 0.00 0.00 0.00 0.00 0.01 0.01 0.01 0.01 0.01 0.02 0.01 0.00 0.00 0.00 0.00 0.00 0.01 0.01 0.00 0.00 0.00 0.00 0.00 0.00 0.00 0.00 0.01 0.01 0.01 0.02 0.01 0.01 0.01 0.00 0.00 0.00 0.01 0.01 0.01
0.00 0.00 0.00 0.00 0.00 0.00 0.00 0.00 0.01 0.01 0.01 0.01 0.01 0.01 0.01 0.01 0.01 0.01 0.00 0.00 0.00 0.00 0.01 0.01 0.00 0.00 0.00 0.00 0.00 0.00 0.00 0.00 0.00 0.01 0.01 0.01 0.01 0.01 0.01 0.00 0.01 0.01 0.01 0.01
0.00 0.00 0.00 0.00 0.00 0.00 0.00 0.01 0.02 0.01 0.01 0.04 0.02 0.02 0.01 0.01 0.01 0.00 0.00 0.00 0.00 0.00 0.00 0.00 0.00 0.01 0.01 0.01 0.01 0.01 0.00 0.00 0.01 0.00 0.01 0.01 0.02 0.01 0.01 0.01 0.01 0.01 0.01 0.02
0.00 0.00 0.00 0.00 0.00 0.00 0.00 0.00 0.00 0.00 0.01 0.02 0.03 0.03 0.01 0.01 0.00 0.00 0.00 0.00 0.00 0.00 0.00 0.00 0.01 0.01 0.01 0.01 0.01 0.01 0.01 0.01 0.01 0.00 0.00 0.01 0.02 0.02 0.02 0.02 0.02 0.03 0.03 0.04
0.00 0.00 0.00 0.00 0.00 0.00 0.00 0.00 0.00 0.00 0.00 0.02 0.02 0.01 0.01 0.01 0.00 0.00 0.00 0.00 0.00 0.00 0.00 0.00 0.00 0.01 0.03 0.03 0.01 0.01 0.02 0.01 0.01 0.01 0.00 0.01 0.01 0.02 0.02 0.03 0.03 0.03 0.03 0.03
0.01 0.00 0.00 0.00 0.00 0.00 0.00 0.00 0.00 0.00 0.00 0.01 0.02 0.01 0.01 0.01 0.00 0.00 0.00 0.00 0.00 0.00 0.00 0.01 0.01 0.01 0.02 0.03 0.02 0.02 0.01 0.01 0.02 0.01 0.01 0.01 0.01 0.01 0.02 0.02 0.03 0.03 0.03 0.03
0.01 0.01 0.01 0.00 0.00 0.00 0.00 0.00 0.00 0.00 0.00 0.01 0.01 0.01 0.00 0.00 0.00 0.00 0.00 0.00 0.00 0.00 0.00 0.00 0.01 0.01 0.01 0.02 0.02 0.02 0.02 0.02 0.02 0.01 0.01 0.01 0.01 0.01 0.01 0.01 0.02 0.02 0.02 0.02
0.01 0.01 0.01 0.01 0.00 0.00 0.00 0.00 0.00 0.00 0.01 0.01 0.01 0.01 0.01 0.01 0.00 0.00 0.00 0.00 0.01 0.01 0.00 0.00 0.01 0.01 0.01 0.01 0.01 0.02 0.01 0.01 0.01 0.01 0.01 0.01 0.01 0.01 0.01 0.02 0.03 0.03 0.03 0.02
0.00 0.01 0.01 0.01 0.00 0.00 0.00 0.00 0.00 0.00 0.00 0.00 0.01 0.01 0.00 0.00 0.00 0.00 0.00 0.00 0.01 0.01 0.00 0.01 0.01 0.01 0.01 0.01 0.01 0.01 0.01 0.01 0.01 0.01 0.01 0.01 0.01 0.01 0.01 0.01 0.02 0.02 0.03 0.03
0.00 0.00 0.00 0.00 0.00 0.00 0.00 0.00 0.00 0.00 0.00 0.00 0.00 0.01 0.00 0.00 0.00 0.00 0.00 0.00 0.01 0.01 0.00 0.00 0.01 0.01 0.01 0.01 0.01 0.01 0.01 0.01 0.01 0.01 0.00 0.01 0.01 0.01 0.01 0.01 0.03 0.02 0.02 0.02
0.00 0.01 0.00 0.00 0.00 0.00 0.00 0.00 0.00 0.00 0.00 0.00 0.00 0.00 0.00 0.00 0.00 0.00 0.00 0.00 0.00 0.00 0.00 0.00 0.00 0.01 0.01 0.02 0.01 0.01 0.01 0.01 0.01 0.01 0.01 0.01 0.01 0.02 0.03 0.03 0.03 0.02 0.02 0.02
0.01 0.01 0.01 0.00 0.00 0.00 0.00 0.00 0.00 0.00 0.00 0.00 0.00 0.00 0.00 0.00 0.00 0.00 0.00 0.01 0.01 0.01 0.00 0.00 0.01 0.01 0.01 0.01 0.01 0.01 0.01 0.01 0.01 0.01 0.01 0.02 0.03 0.03 0.03 0.03 0.03 0.03 0.04 0.02
0.01 0.01 0.01 0.01 0.01 0.01 0.00 0.00 0.00 0.00 0.00 0.00 0.00 0.00 0.00 0.00 0.00 0.00 0.01 0.01 0.01 0.01 0.00 0.01 0.01 0.01 0.01 0.01 0.01 0.01 0.02 0.01 0.02 0.01 0.01 0.01 0.01 0.03 0.03 0.02 0.03 0.04 0.03 0.03
0.01 0.01 0.01 0.01 0.01 0.00 0.00 0.00 0.00 0.00 0.00 0.00 0.00 0.00 0.00 0.00 0.00 0.00 0.01 0.01 0.01 0.01 0.01 0.01 0.01 0.02 0.02 0.02 0.02 0.02 0.02 0.01 0.02 0.02 0.01 0.01 0.01 0.01 0.01 0.01 0.02 0.02 0.02 0.02
0.00 0.01 0.01 0.01 0.01 0.01 0.00 0.00 0.00 0.00 0.00 0.00 0.01 0.01 0.01 0.01 0.01 0.01 0.01 0.01 0.00 0.00 0.00 0.00 0.01 0.02 0.03 0.03 0.02 0.01 0.01 0.02 0.01 0.01 0.01 0.01 0.01 0.02 0.01 0.00 0.01 0.01 0.00 0.00
0.01 0.01 0.01 0.01 0.01 0.00 0.00 0.00 0.00 0.01 0.01 0.01 0.01 0.01 0.01 0.01 0.01 0.01 0.01 0.01 0.00 0.00 0.00 0.00 0.01 0.02 0.02 0.02 0.02 0.01 0.01 0.02 0.02 0.02 0.02 0.01 0.01 0.01 0.01 0.01 0.01 0.01 0.00 0.00
0.03 0.03 0.01 0.00 0.01 0.00 0.00 0.00 0.01 0.01 0.01 0.01 0.01 0.01 0.01 0.01 0.01 0.01 0.01 0.01 0.01 0.01 0.00 0.00 0.00 0.01 0.01 0.02 0.02 0.01 0.01 0.02 0.02 0.02 0.03 0.02 0.01 0.01 0.02 0.01 0.01 0.01 0.01 0.01
0.02 0.02 0.01 0.01 0.00 0.00 0.00 0.00 0.01 0.01 0.01 0.01 0.01 0.01 0.00 0.00 0.00 0.00 0.00 0.00 0.01 0.01 0.00 0.00 0.00 0.01 0.02 0.03 0.02 0.02 0.01 0.02 0.02 0.02 0.02 0.02 0.02 0.03 0.02 0.02 0.01 0.01 0.01 0.01
0.01 0.01 0.01 0.01 0.00 0.00 0.01 0.01 0.01 0.01 0.02 0.01 0.01 0.00 0.00 0.00 0.00 0.00 0.00 0.00 0.00 0.00 0.00 0.00 0.01 0.01 0.01 0.03 0.04 0.03 0.02 0.02 0.02 0.02 0.02 0.02 0.03 0.03 0.03 0.02 0.02 0.01 0.01 0.01
0.01 0.01 0.01 0.01 0.01 0.01 0.01 0.01 0.01 0.01 0.01 0.01 0.01 0.01 0.01 0.01 0.01 0.00 0.00 0.00 0.01 0.00 0.00 0.01 0.01 0.01 0.02 0.02 0.03 0.02 0.02 0.01 0.02 0.02 0.02 0.03 0.03 0.04 0.04 0.03 0.02 0.01 0.01 0.01
0.01 0.01 0.01 0.01 0.01 0.02 0.01 0.01 0.01 0.01 0.04 0.02 0.02 0.02 0.02 0.01 0.01 0.00 0.01 0.01 0.01 0.01 0.01 0.02 0.02 0.02 0.01 0.01 0.01 0.01 0.02 0.01 0.01 0.01 0.02 0.03 0.03 0.04 0.04 0.03 0.02 0.02 0.02 0.01
MSLP
1016.50 1017.10 1017.57 1017.90 1018.12 1018.24 1018.28 1018.27 1018.21 1018.09 1017.91 1017.66 1017.35 1017.01 1016.68 1016.38 1016.17 1016.05 1016.03 1016.08 1016.19 1016.30 1016.38 1016.39 1016.34 1016.24 1016.10 1015.95 1015.84 1015.77 1015.77 1015.81 1015.90 1016.00 1016.08 1016.14 1016.15 1016.11 1016.04 1015.93 1015.81 1015.71 1015.64 1015.64
1017.14 1017.57 1017.88 1018.08 1018.20 1018.29 1018.35 1018.41 1018.44 1018.41 1018.30 1018.09 1017.77 1017.36 1016.93 1016.51 1016.18 1015.97 1015.90 1015.97 1016.12 1016.31 1016.49 1016.60 1016.61 1016.53 1016.38 1016.19 1016.02 1015.90 1015.86 1015.91 1016.03 1016.19 1016.35 1016.48 1016.55 1016.53 1016.44 1016.29 1016.11 1015.94 1015.82 1015.78
1017.60 1017.86 1017.99 1018.06 1018.11 1018.19 1018.31 1018.47 1018.63 1018.73 1018.71 1018.54 1018.21 1017.73 1017.17 1016.62 1016.15 1015.83 1015.69 1015.74 1015.94 1016.21 1016.49 1016.70 1016.80 1016.77 1016.63 1016.42 1016.21 1016.05 1015.98 1016.02 1016.16 1016.36 1016.59 1016.78 1016.91 1016.93 1016.85 1016.68 1016.47 1016.26 1016.09 1016.01
1017.90 1017.97 1017.95 1017.92 1017.93 1018.04 1018.26 1018.57 1018.88 1019.12 1019.21 1019.09 1018.73 1018.17 1017.47 1016.75 1016.12 1015.66 1015.43 1015.44 1015.65 1015.99 1016.37 1016.69 1016.89 1016.93 1016.83 1016.64 1016.41 1016.21 1016.10 1016.12 1016.26 1016.49 1016.76 1017.02 1017.19 1017.26 1017.20 1017.05 1016.82 1016.59 1016.40 1016.29
1018.06 1017.97 1017.83 1017.74 1017.77 1017.95 1018.31 1018.78 1019.27 1019.66 1019.86 1019.77 1019.38 1018.72 1017.87 1016.97 1016.14 1015.51 1015.16 1015.10 1015.31 1015.70 1016.16 1016.59 1016.90 1017.03 1016.99 1016.82 1016.59 1016.37 1016.23 1016.22 1016.34 1016.57 1016.86 1017.14 1017.37 1017.48 1017.47 1017.34 1017.14 1016.91 1016.71 1016.58
1018.14 1017.93 1017.72 1017.62 1017.70 1018.01 1018.52 1019.17 1019.84 1020.38 1020.66 1020.61 1020.18 1019.40 1018.39 1017.29 1016.26 1015.44 1014.94 1014.79 1014.96 1015.37 1015.90 1016.42 1016.83 1017.06 1017.10 1016.97 1016.75 1016.51 1016.34 1016.29 1016.38 1016.59 1016.87 1017.17 1017.43 1017.59 1017.62 1017.54 1017.38 1017.17 1016.98 1016.84
1018.17 1017.89 1017.67 1017.62 1017.79 1018.24 1018.91 1019.74 1020.56 1021.23 1021.59 1021.54 1021.05 1020.17 1018.99 1017.70 1016.47 1015.46 1014.81 1014.54 1014.65 1015.05 1015.62 1016.21 1016.71 1017.03 1017.14 1017.07 1016.87 1016.63 1016.43 1016.34 1016.38 1016.55 1016.82 1017.12 1017.39 1017.59 1017.67 1017.65 1017.53 1017.36 1017.18 1017.06
1018.19 1017.91 1017.72 1017.74 1018.04 1018.62 1019.45 1020.42 1021.36 1022.11 1022.50 1022.45 1021.90 1020.91 1019.60 1018.14 1016.74 1015.58 1014.77 1014.39 1014.42 1014.78 1015.35 1015.99 1016.55 1016.94 1017.13 1017.11 1016.95 1016.72 1016.51 1016.38 1016.38 1016.51 1016.74 1017.02 1017.30 1017.52 1017.64 1017.67 1017.60 1017.47 1017.33 1017.22
1018.23 1017.98 1017.87 1017.99 1018.39 1019.09 1020.03 1021.08 1022.09 1022.87 1023.27 1023.18 1022.58 1021.51 1020.11 1018.54 1017.02 1015.73 1014.80 1014.32 1014.27 1014.58 1015.12 1015.76 1016.36 1016.81 1017.05 1017.10 1016.98 1016.78 1016.57 1016.43 1016.39 1016.48 1016.67 1016.92 1017.19 1017.42 1017.58 1017.64 1017.62 1017.54 1017.43 1017.33
1018.29 1018.12 1018.09 1018.30 1018.79 1019.56 1020.54 1021.61 1022.61 1023.36 1023.72 1023.59 1022.95 1021.84 1020.40 1018.78 1017.21 1015.86 1014.87 1014.31 1014.19 1014.43 1014.93 1015.55 1016.15 1016.63 1016.92 1017.03 1016.97 1016.82 1016.63 1016.49 1016.44 1016.50 1016.66 1016.88 1017.12 1017.35 1017.51 1017.60 1017.61 1017.57 1017.49 1017.42
1018.40 1018.31 1018.38 1018.65 1019.18 1019.95 1020.89 1021.89 1022.80 1023.47 1023.75 1023.57 1022.90 1021.80 1020.38 1018.80 1017.26 1015.93 1014.93 1014.33 1014.15 1014.33 1014.76 1015.33 1015.91 1016.40 1016.73 1016.89 1016.91 1016.82 1016.69 1016.59 1016.55 1016.59 1016.72 1016.91 1017.13 1017.33 1017.49 1017.58 1017.62 1017.60 1017.55 1017.50
1018.57 1018.58 1018.71 1019.02 1019.53 1020.23 1021.05 1021.91 1022.66 1023.18 1023.35 1023.11 1022.43 1021.38 1020.04 1018.58 1017.14 1015.89 1014.93 1014.34 1014.12 1014.23 1014.59 1015.09 1015.63 1016.10 1016.46 1016.68 1016.77 1016.77 1016.73 1016.69 1016.68 1016.74 1016.86 1017.02 1017.20 1017.37 1017.51 1017.60 1017.64 1017.64 1017.62 1017.60
1018.85 1018.93 1019.10 1019.40 1019.84 1020.40 1021.05 1021.69 1022.23 1022.56 1022.59 1022.28 1021.62 1020.64 1019.44 1018.13 1016.85 1015.73 1014.86 1014.30 1014.06 1014.11 1014.39 1014.80 1015.27 1015.71 1016.09 1016.36 1016.54 1016.64 1016.70 1016.75 1016.81 1016.90 1017.03 1017.17 1017.32 1017.46 1017.57 1017.64 1017.69 1017.70 1017.71 1017.72
1019.24 1019.38 1019.56 1019.81 1020.13 1020.52 1020.94 1021.32 1021.61 1021.73 1021.61 1021.23 1020.58 1019.70 1018.66 1017.54 1016.45 1015.49 1014.73 1014.21 1013.95 1013.93 1014.11 1014.42 1014.81 1015.21 1015.58 1015.91 1016.18 1016.39 1016.57 1016.73 1016.88 1017.02 1017.17 1017.31 1017.44 1017.54 1017.63 1017.69 1017.74 1017.77 1017.80 1017.85
1019.75 1019.93 1020.10 1020.27 1020.45 1020.63 1020.79 1020.91 1020.93 1020.83 1020.56 1020.11 1019.48 1018.71 1017.82 1016.90 1016.00 1015.19 1014.53 1014.06 1013.77 1013.67 1013.74 1013.94 1014.23 1014.57 1014.93 1015.29 1015.65 1015.98 1016.28 1016.56 1016.82 1017.04 1017.22 1017.38 1017.50 1017.59 1017.66 1017.72 1017.77 1017.83 1017.90 1017.98
1020.34 1020.53 1020.66 1020.74 1020.77 1020.75 1020.67 1020.52 1020.30 1019.98 1019.57 1019.06 1018.45 1017.76 1017.02 1016.26 1015.54 1014.87 1014.29 1013.84 1013.51 1013.32 1013.27 1013.34 1013.52 1013.78 1014.13 1014.52 1014.94 1015.38 1015.82 1016.22 1016.58 1016.89 1017.14 1017.32 1017.46 1017.56 1017.63 1017.69 1017.77 1017.86 1017.97 1018.11
1020.93 1021.12 1021.20 1021.19 1021.07 1020.86 1020.56 1020.18 1019.74 1019.25 1018.71 1018.14 1017.55 1016.93 1016.31 1015.70 1015.10 1014.53 1014.01 1013.56 1013.18 1012.89 1012.70 1012.64 1012.70 1012.89 1013.20 1013.61 1014.09 1014.62 1015.17 1015.69 1016.17 1016.57 1016.88 1017.12 1017.29 1017.41 1017.51 1017.60 1017.71 1017.85 1018.01 1018.21
1021.44 1021.59 1021.62 1021.51 1021.27 1020.90 1020.42 1019.86 1019.26 1018.63 1017.99 1017.38 1016.79 1016.24 1015.71 1015.19 1014.69 1014.19 1013.70 1013.22 1012.78 1012.38 1012.08 1011.89 1011.84 1011.95 1012.21 1012.61 1013.14 1013.74 1014.38 1015.01 1015.58 1016.07 1016.47 1016.77 1016.99 1017.16 1017.29 1017.43 1017.59 1017.79 1018.01 1018.26
1021.76 1021.86 1021.81 1021.62 1021.27 1020.78 1020.17 1019.49 1018.77 1018.04 1017.35 1016.72 1016.15 1015.64 1015.17 1014.73 1014.30 1013.84 1013.36 1012.86 1012.35 1011.87 1011.46 1011.16 1011.01 1011.03 1011.24 1011.63 1012.17 1012.81 1013.52 1014.22 1014.87 1015.45 1015.92 1016.29 1016.58 1016.80 1017.00 1017.20 1017.42 1017.67 1017.96 1018.27
1021.83 1021.85 1021.72 1021.44 1021.00 1020.43 1019.74 1018.98 1018.19 1017.43 1016.71 1016.08 1015.54 1015.07 1014.66 1014.28 1013.90 1013.47 1013.01 1012.49 1011.94 1011.39 1010.90 1010.51 1010.28 1010.23 1010.38 1010.73 1011.26 1011.92 1012.65 1013.40 1014.11 1014.74 1015.28 1015.72 1016.08 1016.38 1016.64 1016.90 1017.19 1017.50 1017.85 1018.20
1021.63 1021.55 1021.33 1020.97 1020.46 1019.82 1019.09 1018.30 1017.50 1016.72 1016.02 1015.42 1014.91 1014.50 1014.15 1013.82 1013.49 1013.10 1012.66 1012.14 1011.58 1011.01 1010.47 1010.02 1009.72 1009.60 1009.70 1010.00 1010.48 1011.12 1011.84 1012.60 1013.34 1014.01 1014.60 1015.10 1015.52 1015.89 1016.22 1016.55 1016.90 1017.27 1017.66 1018.06
1021.20 1021.00 1020.68 1020.24 1019.67 1019.00 1018.25 1017.46 1016.68 1015.94 1015.28 1014.72 1014.27 1013.92 1013.62 1013.36 1013.08 1012.75 1012.34 1011.86 1011.32 1010.74 1010.18 1009.71 1009.36 1009.19 1009.21 1009.45 1009.87 1010.44 1011.13 1011.86 1012.58 1013.27 1013.89 1014.44 1014.92 1015.34 1015.74 1016.13 1016.53 1016.95 1017.38 1017.81
1020.59 1020.27 1019.86 1019.34 1018.73 1018.04 1017.30 1016.53 1015.79 1015.11 1014.51 1014.02 1013.64 1013.35 1013.12 1012.92 1012.70 1012.43 1012.08 1011.65 1011.15 1010.60 1010.05 1009.56 1009.18 1008.96 1008.91 1009.06 1009.39 1009.88 1010.49 1011.16 1011.85 1012.53 1013.16 1013.74 1014.26 1014.74 1015.19 1015.63 1016.08 1016.53 1016.99 1017.44
1019.89 1019.46 1018.95 1018.37 1017.73 1017.04 1016.33 1015.62 1014.94 1014.32 1013.80 1013.38 1013.07 1012.84 1012.67 1012.53 1012.38 1012.17 1011.88 1011.51 1011.05 1010.54 1010.02 1009.53 1009.12 1008.84 1008.72 1008.78 1009.00 1009.38 1009.89 1010.48 1011.12 1011.76 1012.39 1012.98 1013.54 1014.06 1014.56 1015.04 1015.52 1016.00 1016.47 1016.94
1019.14 1018.61 1018.04 1017.43 1016.78 1016.11 1015.44 1014.79 1014.19 1013.66 1013.21 1012.86 1012.61 1012.44 1012.32 1012.22 1012.11 1011.95 1011.71 1011.39 1010.98 1010.51 1010.00 1009.51 1009.08 1008.74 1008.55 1008.50 1008.62 1008.88 1009.28 1009.78 1010.35 1010.95 1011.56 1012.17 1012.75 1013.31 1013.85 1014.36 1014.87 1015.36 1015.84 1016.31
1018.34 1017.77 1017.16 1016.54 1015.92 1015.30 1014.69 1014.12 1013.61 1013.16 1012.78 1012.50 1012.29 1012.15 1012.06 1011.98 1011.88 1011.74 1011.53 1011.23 1010.85 1010.40 1009.90 1009.40 1008.94 1008.56 1008.28 1008.14 1008.15 1008.31 1008.61 1009.02 1009.52 1010.09 1010.68 1011.29 1011.90 1012.49 1013.06 1013.61 1014.13 1014.63 1015.11 1015.57
Thickness
5760 5744 5734 5740 5744 5744 5741 5735 5731 5738 5753 5745 5734 5734 5739 5743 5741 5737 5734 5733 5733 5734 5738 5740 5740 5738 5735 5732 5730 5729 5727 5726 5725 5722 5720 5717 5716 5717 5717 5717 5716 5715 5714 5713
5739 5735 5749 5755 5753 5748 5741 5733 5732 5740 5752 5744 5733 5732 5740 5743 5742 5742 5738 5735 5734 5733 5733 5735 5735 5735 5733 5730 5729 5727 5726 5725 5724 5722 5720 5718 5716 5715 5715 5714 5714 5714 5713 5712
5732 5744 5759 5753 5746 5741 5738 5733 5732 5732 5741 5742 5732 5723 5731 5740 5745 5745 5743 5741 5738 5736 5733 5732 5732 5731 5731 5729 5728 5728 5725 5725 5724 5722 5719 5716 5714 5712 5711 5711 5711 5711 5711 5710
5737 5751 5752 5745 5742 5742 5730 5745 5742 5736 5723 5712 5722 5699 5721 5731 5735 5739 5740 5739 5737 5738 5736 5733 5732 5730 5729 5730 5729 5727 5725 5724 5722 5720 5717 5714 5710 5707 5708 5709 5709 5710 5710 5709
5735 5747 5744 5739 5745 5747 5740 5750 5743 5735 5722 5710 5713 5702 5712 5728 5727 5734 5739 5740 5739 5739 5737 5734 5733 5731 5731 5730 5728 5726 5725 5722 5721 5719 5717 5713 5710 5708 5708 5708 5708 5708 5708 5708
5740 5753 5751 5748 5754 5753 5749 5740 5731 5718 5707 5693 5707 5699 5704 5720 5732 5738 5741 5742 5741 5739 5737 5735 5734 5732 5729 5729 5727 5725 5723 5720 5720 5718 5716 5713 5710 5708 5706 5705 5705 5705 5705 5706
5726 5738 5750 5754 5741 5743 5736 5711 5690 5687 5679 5686 5709 5703 5710 5736 5747 5747 5744 5743 5742 5740 5736 5733 5730 5728 5727 5725 5725 5723 5721 5718 5717 5716 5714 5713 5711 5709 5707 5705 5704 5703 5703 5703
5703 5708 5736 5745 5738 5728 5726 5713 5686 5675 5673 5684 5704 5700 5720 5747 5753 5753 5751 5746 5743 5739 5737 5734 5732 5729 5726 5725 5723 5721 5719 5717 5716 5714 5713 5712 5710 5709 5707 5707 5705 5704 5703 5704
5699 5705 5736 5745 5747 5737 5720 5710 5711 5691 5688 5682 5690 5709 5729 5743 5743 5744 5743 5741 5738 5738 5736 5734 5731 5729 5726 5724 5722 5721 5718 5716 5714 5713 5712 5710 5709 5708 5707 5706 5706 5704 5704 5704
5708 5701 5720 5735 5740 5737 5730 5719 5698 5686 5674 5668 5684 5695 5703 5722 5728 5734 5736 5736 5736 5736 5734 5732 5730 5728 5726 5724 5722 5720 5718 5715 5714 5712 5711 5710 5708 5708 5707 5706 5704 5704 5704 5703
5707 5695 5703 5715 5716 5714 5717 5712 5701 5686 5681 5669 5670 5688 5725 5727 5731 5731 5734 5736 5736 5735 5733 5731 5729 5727 5725 5722 5720 5717 5716 5713 5712 5711 5710 5708 5707 5706 5705 5704 5704 5703 5703 5702
5699 5686 5683 5699 5719 5728 5720 5712 5699 5682 5678 5677 5672 5688 5735 5735 5736 5735 5734 5735 5736 5735 5734 5731 5728 5724 5721 5718 5716 5714 5713 5712 5711 5710 5708 5707 5705 5704 5702 5702 5702 5702 5701 5701
5693 5678 5668 5678 5693 5708 5709 5711 5706 5693 5681 5673 5670 5690 5730 5732 5732 5734 5733 5732 5732 5731 5729 5726 5723 5720 5718 5716 5714 5712 5711 5710 5709 5707 5705 5704 5702 5701 5700 5700 5701 5701 5700 5699
5693 5674 5668 5666 5676 5689 5694 5702 5704 5691 5675 5674 5682 5696 5716 5721 5724 5727 5729 5729 5728 5727 5726 5723 5720 5718 5717 5715 5714 5712 5710 5709 5707 5705 5703 5701 5700 5699 5699 5699 5699 5699 5698 5697
5682 5668 5674 5679 5688 5693 5694 5697 5699 5693 5689 5683 5691 5699 5712 5719 5723 5726 5727 5726 5724 5722 5722 5720 5718 5716 5715 5713 5712 5710 5709 5708 5706 5703 5700 5699 5699 5698 5697 5697 5697 5697 5696 5695
5669 5664 5668 5671 5683 5686 5687 5694 5697 5697 5697 5695 5698 5702 5719 5723 5722 5721 5721 5721 5719 5719 5719 5718 5717 5715 5713 5712 5711 5709 5707 5706 5705 5701 5699 5698 5697 5696 5695 5694 5694 5694 5693 5692
5655 5654 5651 5652 5668 5672 5669 5689 5693 5694 5700 5699 5692 5703 5714 5713 5715 5716 5718 5718 5717 5718 5718 5717 5716 5715 5714 5713 5712 5709 5707 5705 5703 5701 5698 5697 5695 5694 5693 5693 5691 5690 5690 5689
5648 5645 5638 5642 5651 5644 5674 5698 5700 5696 5699 5704 5705 5708 5711 5713 5716 5718 5718 5716 5715 5716 5716 5716 5716 5715 5714 5713 5711 5710 5706 5703 5701 5699 5697 5696 5694 5692 5691 5690 5688 5688 5687 5686
5652 5641 5631 5630 5634 5649 5673 5690 5693 5689 5688 5701 5701 5704 5708 5712 5710 5708 5715 5717 5716 5716 5717 5716 5717 5715 5713 5711 5709 5706 5703 5701 5698 5697 5696 5695 5693 5691 5689 5687 5686 5686 5684 5683
5647 5641 5628 5624 5627 5634 5665 5689 5698 5690 5676 5696 5699 5698 5700 5700 5687 5694 5709 5712 5713 5715 5715 5714 5713 5712 5709 5708 5707 5703 5700 5698 5697 5697 5696 5694 5693 5690 5688 5687 5686 5685 5683 5681
5630 5625 5621 5619 5623 5639 5670 5685 5687 5664 5672 5694 5696 5696 5695 5692 5694 5702 5707 5708 5709 5710 5711 5710 5708 5706 5706 5706 5704 5700 5698 5697 5698 5697 5695 5693 5692 5690 5689 5686 5685 5682 5680 5678
5623 5618 5617 5617 5617 5634 5671 5674 5668 5672 5686 5691 5693 5694 5693 5694 5698 5701 5703 5703 5703 5703 5704 5704 5702 5701 5702 5702 5700 5697 5696 5698 5697 5695 5692 5691 5690 5689 5687 5683 5681 5679 5677 5674
5622 5625 5623 5625 5634 5655 5666 5668 5674 5678 5678 5684 5687 5690 5691 5690 5691 5695 5696 5697 5698 5699 5698 5699 5697 5696 5696 5697 5697 5693 5694 5694 5692 5690 5688 5687 5686 5685 5684 5681 5678 5675 5673 5671
5619 5626 5623 5624 5637 5649 5657 5664 5668 5672 5675 5682 5685 5687 5687 5685 5687 5688 5690 5691 5692 5693 5693 5693 5692 5690 5690 5692 5692 5692 5692 5691 5688 5686 5684 5683 5681 5678 5678 5677 5675 5672 5670 5668
5611 5615 5615 5619 5632 5640 5649 5655 5660 5666 5671 5675 5678 5680 5681 5681 5680 5682 5683 5684 5686 5686 5687 5687 5687 5686 5686 5687 5687 5688 5688 5687 5684 5682 5680 5678 5677 5674 5671 5670 5669 5669 5669 5668
5604 5608 5608 5614 5626 5628 5635 5647 5654 5657 5662 5667 5669 5671 5675 5676 5675 5676 5676 5678 5680 5680 5681 5681 5681 5681 5681 5682 5682 5683 5683 5683 5680 5676 5674 5673 5671 5669 5666 5664 5662 5662 5663 5663